CCM200 LFKC-LIRA

Flight info

Callsign CCM200
Flight time 0h 58m
Altitude 17000
Route CAPCO DCT MIRSA DCT ELB DCT ELKAP
Aircraft AT76/M-SDFGIRY/S

Departure

Time 2026-04-30 18:51
Airport Calvi Sainte Catherine Airport (LFKC)

Arrival

Time 2026-04-30 19:50
Airport Ciampino–G. B. Pastine International Airport (LIRA)
Time Latitude Longitude Altitude Speed Heading
2026-04-30 18:00 42.52341 8.79160 182 ft 0 kts 178°
2026-04-30 18:48 42.52335 8.79161 182 ft 7 kts 178°
2026-04-30 18:48 42.52290 8.79161 184 ft 5 kts 180°
2026-04-30 18:48 42.52265 8.79162 188 ft 3 kts 172°
2026-04-30 18:48 42.52251 8.79178 193 ft 3 kts 125°
2026-04-30 18:49 42.52244 8.79216 197 ft 6 kts 91°
2026-04-30 18:49 42.52253 8.79296 195 ft 11 kts 46°
2026-04-30 18:49 42.52296 8.79304 188 ft 0 kts 358°
2026-04-30 18:50 42.52298 8.79304 188 ft 2 kts 358°
2026-04-30 18:50 42.52526 8.79300 175 ft 64 kts
2026-04-30 18:50 42.53180 8.79290 132 ft 121 kts 358°
2026-04-30 18:51 42.54058 8.79188 455 ft 134 kts 348°
2026-04-30 18:51 42.55120 8.79104 518 ft 170 kts
2026-04-30 18:51 42.56343 8.79187 815 ft 177 kts
2026-04-30 18:51 42.57616 8.79269 995 ft 189 kts
2026-04-30 18:52 42.58953 8.79302 1257 ft 194 kts 360°
2026-04-30 18:52 42.60299 8.79310 1615 ft 193 kts 359°
2026-04-30 18:52 42.61614 8.79472 1966 ft 189 kts 21°
2026-04-30 18:52 42.62564 8.80652 2345 ft 186 kts 56°
2026-04-30 18:53 42.63275 8.82115 2737 ft 185 kts 55°
2026-04-30 18:53 42.64014 8.83565 2947 ft 193 kts 54°
2026-04-30 18:53 42.64830 8.85062 3162 ft 200 kts 52°
2026-04-30 18:53 42.65715 8.86554 3377 ft 205 kts 49°
2026-04-30 18:54 42.66660 8.88035 3585 ft 209 kts 48°
2026-04-30 18:54 42.67651 8.89509 3814 ft 212 kts 46°
2026-04-30 18:54 42.68667 8.90991 4029 ft 215 kts 46°
2026-04-30 18:54 42.69696 8.92481 4242 ft 217 kts 46°
2026-04-30 18:55 42.70735 8.93980 4451 ft 219 kts 46°
2026-04-30 18:55 42.72846 8.97016 4859 ft 222 kts 46°
2026-04-30 18:55 42.73900 8.98528 5216 ft 214 kts 46°
2026-04-30 18:56 42.75840 9.01296 6207 ft 192 kts 46°
2026-04-30 18:56 42.76761 9.02591 6565 ft 190 kts 45°
2026-04-30 18:56 42.77669 9.03865 6868 ft 190 kts 45°
2026-04-30 18:57 42.79511 9.06477 7456 ft 192 kts 46°
2026-04-30 18:57 42.80432 9.07797 7743 ft 193 kts 46°
2026-04-30 18:57 42.81354 9.09124 8030 ft 193 kts 46°
2026-04-30 18:58 42.83209 9.11801 8589 ft 195 kts 46°
2026-04-30 18:58 42.84140 9.13146 8863 ft 196 kts 46°
2026-04-30 18:58 42.85076 9.14498 9134 ft 196 kts 46°
2026-04-30 18:59 42.86961 9.17222 9665 ft 198 kts 46°
2026-04-30 19:00 42.89541 9.21571 10362 ft 200 kts 82°
2026-04-30 19:00 42.89508 9.23445 10604 ft 201 kts 98°
2026-04-30 19:00 42.88962 9.27202 11110 ft 203 kts 103°
2026-04-30 19:01 42.88362 9.30978 11589 ft 204 kts 101°
2026-04-30 19:01 42.88087 9.32883 11824 ft 205 kts 101°
2026-04-30 19:02 42.87557 9.36730 12286 ft 207 kts 101°
2026-04-30 19:02 42.87023 9.40620 12717 ft 210 kts 101°
2026-04-30 19:03 42.86486 9.44535 13169 ft 210 kts 101°
2026-04-30 19:03 42.85949 9.48431 13603 ft 211 kts 101°
2026-04-30 19:04 42.85406 9.52369 14017 ft 212 kts 101°
2026-04-30 19:04 42.84857 9.56331 14415 ft 213 kts 101°
2026-04-30 19:05 42.84304 9.60315 14798 ft 215 kts 101°
2026-04-30 19:05 42.83746 9.64326 15163 ft 216 kts 101°
2026-04-30 19:06 42.83181 9.68355 15513 ft 217 kts 101°
2026-04-30 19:06 42.82898 9.70376 15684 ft 218 kts 101°
2026-04-30 19:06 42.82327 9.74438 16012 ft 219 kts 101°
2026-04-30 19:07 42.81758 9.78519 16327 ft 220 kts 101°
2026-04-30 19:07 42.81473 9.80568 16479 ft 220 kts 101°
2026-04-30 19:08 42.80893 9.84685 16759 ft 222 kts 101°
2026-04-30 19:08 42.80301 9.88887 16841 ft 232 kts 101°
2026-04-30 19:08 42.79994 9.91074 16854 ft 238 kts 101°
2026-04-30 19:09 42.79356 9.95579 16863 ft 246 kts 101°
2026-04-30 19:09 42.79031 9.97883 16864 ft 249 kts 101°
2026-04-30 19:09 42.78702 10.00199 16862 ft 252 kts 101°
2026-04-30 19:10 42.78031 10.04927 16861 ft 256 kts 101°
2026-04-30 19:10 42.77348 10.09714 16864 ft 259 kts 101°
2026-04-30 19:11 42.77003 10.12128 16865 ft 260 kts 101°
2026-04-30 19:11 42.76309 10.16977 16864 ft 262 kts 101°
2026-04-30 19:11 42.75959 10.19408 16864 ft 262 kts 101°
2026-04-30 19:12 42.75608 10.21848 16861 ft 263 kts 101°
2026-04-30 19:12 42.75256 10.24286 16866 ft 263 kts 101°
2026-04-30 19:12 42.74903 10.26728 16867 ft 263 kts 101°
2026-04-30 19:13 42.74196 10.31631 16862 ft 264 kts 101°
2026-04-30 19:13 42.73488 10.36498 16864 ft 264 kts 101°
2026-04-30 19:13 42.73130 10.38950 16868 ft 264 kts 101°
2026-04-30 19:14 42.72624 10.41338 16863 ft 263 kts 112°
2026-04-30 19:14 42.71849 10.43604 16865 ft 264 kts 117°
2026-04-30 19:14 42.71022 10.45834 16864 ft 264 kts 117°
2026-04-30 19:14 42.70208 10.48080 16861 ft 265 kts 116°
2026-04-30 19:15 42.69435 10.50349 16862 ft 264 kts 114°
2026-04-30 19:15 42.67914 10.54901 16864 ft 264 kts 115°
2026-04-30 19:15 42.67153 10.57174 16863 ft 264 kts 115°
2026-04-30 19:16 42.66390 10.59449 16864 ft 264 kts 115°
2026-04-30 19:16 42.65625 10.61726 16864 ft 264 kts 115°
2026-04-30 19:16 42.64097 10.66269 16866 ft 264 kts 115°
2026-04-30 19:17 42.63385 10.68387 16865 ft 264 kts 115°
2026-04-30 19:17 42.61918 10.72735 16863 ft 264 kts 115°
2026-04-30 19:17 42.61153 10.75003 16863 ft 264 kts 115°
2026-04-30 19:18 42.60137 10.78009 16867 ft 264 kts 115°
2026-04-30 19:18 42.58863 10.81780 16864 ft 264 kts 115°
2026-04-30 19:18 42.58095 10.84044 16865 ft 264 kts 115°
2026-04-30 19:19 42.57328 10.86311 16867 ft 264 kts 115°
2026-04-30 19:19 42.56561 10.88572 16860 ft 264 kts 115°
2026-04-30 19:19 42.55020 10.93109 16862 ft 264 kts 115°
2026-04-30 19:20 42.54249 10.95374 16865 ft 264 kts 115°
2026-04-30 19:20 42.53480 10.97640 16862 ft 264 kts 115°
2026-04-30 19:20 42.51937 11.02164 16864 ft 264 kts 115°
2026-04-30 19:21 42.51166 11.04426 16866 ft 264 kts 115°
2026-04-30 19:21 42.49631 11.08921 16865 ft 264 kts 115°
2026-04-30 19:22 42.48075 11.13465 16864 ft 264 kts 115°
2026-04-30 19:22 42.45759 11.20223 16864 ft 264 kts 115°
2026-04-30 19:23 42.43849 11.27105 16866 ft 261 kts 92°
2026-04-30 19:24 42.43884 11.32026 16864 ft 262 kts 89°
2026-04-30 19:24 42.43885 11.34495 16865 ft 262 kts 91°
2026-04-30 19:24 42.43777 11.38586 16862 ft 263 kts 92°
2026-04-30 19:25 42.43568 11.46055 16864 ft 264 kts 92°
2026-04-30 19:26 42.43429 11.51021 16864 ft 264 kts 92°
2026-04-30 19:26 42.43288 11.55988 16864 ft 264 kts 92°
2026-04-30 19:26 42.43217 11.58471 16862 ft 264 kts 92°
2026-04-30 19:27 42.43073 11.63443 16864 ft 264 kts 92°
2026-04-30 19:27 42.42927 11.68384 16864 ft 264 kts 92°
2026-04-30 19:28 42.42854 11.70866 16864 ft 264 kts 92°
2026-04-30 19:28 42.42703 11.75840 16862 ft 264 kts 92°
2026-04-30 19:29 42.42551 11.80814 16864 ft 264 kts 92°
2026-04-30 19:29 42.42475 11.83297 16865 ft 264 kts 92°
2026-04-30 19:30 42.42240 11.90760 16864 ft 264 kts 92°
2026-04-30 19:30 42.42081 11.95728 16860 ft 264 kts 92°
2026-04-30 19:31 42.41922 12.00702 16862 ft 264 kts 92°
2026-04-30 19:31 42.41840 12.03187 16865 ft 264 kts 92°
2026-04-30 19:31 42.41677 12.08101 16860 ft 263 kts 92°
2026-04-30 19:32 42.41596 12.10578 16862 ft 263 kts 92°
2026-04-30 19:32 42.41514 12.13044 16864 ft 262 kts 93°
2026-04-30 19:32 42.41430 12.15507 16864 ft 262 kts 92°
2026-04-30 19:32 42.41347 12.17973 16866 ft 262 kts 92°
2026-04-30 19:33 42.41261 12.20434 16863 ft 262 kts 92°
2026-04-30 19:33 42.41177 12.22897 16740 ft 266 kts 92°
2026-04-30 19:33 42.41087 12.25433 16382 ft 270 kts 93°
2026-04-30 19:33 42.40986 12.27968 15999 ft 269 kts 93°
2026-04-30 19:34 42.40882 12.30496 15627 ft 269 kts 93°
2026-04-30 19:34 42.40786 12.33023 15257 ft 268 kts 93°
2026-04-30 19:34 42.40615 12.38050 14519 ft 267 kts 92°
2026-04-30 19:35 42.40529 12.40558 14150 ft 266 kts 93°
2026-04-30 19:35 42.40439 12.43054 13781 ft 265 kts 93°
2026-04-30 19:35 42.40348 12.45546 13417 ft 265 kts 93°
2026-04-30 19:35 42.40256 12.48033 13054 ft 264 kts 93°
2026-04-30 19:36 42.40165 12.50506 12691 ft 263 kts 93°
2026-04-30 19:36 42.40074 12.52931 12334 ft 259 kts 93°
2026-04-30 19:36 42.39893 12.57723 11632 ft 251 kts 93°
2026-04-30 19:37 42.39778 12.60068 11036 ft 253 kts 100°
2026-04-30 19:37 42.38993 12.62239 10200 ft 265 kts 133°
2026-04-30 19:37 42.37421 12.63566 9386 ft 273 kts 164°
2026-04-30 19:37 42.35618 12.63600 8612 ft 236 kts 198°
2026-04-30 19:38 42.34126 12.62776 7914 ft 229 kts 203°
2026-04-30 19:38 42.32652 12.62001 7230 ft 226 kts 200°
2026-04-30 19:38 42.31169 12.61361 6559 ft 222 kts 196°
2026-04-30 19:38 42.29670 12.60881 5906 ft 220 kts 192°
2026-04-30 19:39 42.28171 12.60528 5248 ft 217 kts 189°
2026-04-30 19:39 42.26683 12.60229 4603 ft 215 kts 189°
2026-04-30 19:39 42.25215 12.59930 3978 ft 213 kts 189°
2026-04-30 19:39 42.23871 12.59538 3896 ft 184 kts 199°
2026-04-30 19:40 42.22698 12.58954 3839 ft 177 kts 202°
2026-04-30 19:40 42.21573 12.58350 3787 ft 171 kts 202°
2026-04-30 19:40 42.20482 12.57770 3740 ft 166 kts 202°
2026-04-30 19:40 42.19416 12.57208 3694 ft 163 kts 201°
2026-04-30 19:41 42.18352 12.56664 3673 ft 164 kts 201°
2026-04-30 19:41 42.17292 12.56129 3625 ft 165 kts 201°
2026-04-30 19:41 42.16208 12.55588 3575 ft 169 kts 200°
2026-04-30 19:41 42.15080 12.55036 3538 ft 175 kts 200°
2026-04-30 19:42 42.13920 12.54466 3499 ft 180 kts 201°
2026-04-30 19:42 42.12734 12.53880 3455 ft 183 kts 201°
2026-04-30 19:42 42.11536 12.53283 3406 ft 184 kts 201°
2026-04-30 19:42 42.10330 12.52686 3356 ft 185 kts 200°
2026-04-30 19:43 42.09114 12.52087 3309 ft 187 kts 200°
2026-04-30 19:43 42.07892 12.51485 3255 ft 188 kts 200°
2026-04-30 19:43 42.06664 12.50881 3199 ft 188 kts 200°
2026-04-30 19:44 42.04200 12.49672 3105 ft 189 kts 200°
2026-04-30 19:44 42.02966 12.49063 3051 ft 189 kts 201°
2026-04-30 19:44 42.01730 12.48454 3001 ft 189 kts 200°
2026-04-30 19:44 42.00492 12.47842 2945 ft 190 kts 200°
2026-04-30 19:45 41.99251 12.47231 2906 ft 189 kts 200°
2026-04-30 19:45 41.97995 12.46758 2877 ft 186 kts 183°
2026-04-30 19:45 41.96804 12.47267 2875 ft 179 kts 149°
2026-04-30 19:45 41.95748 12.48119 2868 ft 175 kts 149°
2026-04-30 19:46 41.94715 12.48961 2860 ft 173 kts 149°
2026-04-30 19:46 41.93703 12.49806 2856 ft 169 kts 148°
2026-04-30 19:46 41.92713 12.50633 2853 ft 166 kts 149°
2026-04-30 19:46 41.91718 12.51386 2750 ft 168 kts 153°
2026-04-30 19:47 41.90676 12.52066 2558 ft 165 kts 156°
2026-04-30 19:47 41.89978 12.52513 2403 ft 163 kts 154°
2026-04-30 19:47 41.88651 12.53446 2120 ft 161 kts 152°
2026-04-30 19:47 41.87679 12.54134 1902 ft 153 kts 153°
2026-04-30 19:48 41.86755 12.54773 1709 ft 145 kts 154°
2026-04-30 19:48 41.85903 12.55357 1520 ft 130 kts 154°
2026-04-30 19:48 41.85141 12.55883 1357 ft 118 kts 154°
2026-04-30 19:48 41.84410 12.56394 1203 ft 119 kts 153°
2026-04-30 19:49 41.83665 12.56907 1044 ft 121 kts 154°
2026-04-30 19:49 41.82158 12.57946 723 ft 122 kts 153°
2026-04-30 19:49 41.81406 12.58469 560 ft 119 kts 153°
2026-04-30 19:50 41.80698 12.58962 415 ft 107 kts 153°
2026-04-30 19:50 41.80349 12.59198 409 ft 35 kts 153°
2026-04-30 19:50 41.80149 12.59336 409 ft 39 kts 151°
2026-04-30 19:50 41.79962 12.59460 415 ft 18 kts 153°
2026-04-30 19:51 41.79865 12.59433 407 ft 7 kts 235°
2026-04-30 19:51 41.79847 12.59392 402 ft 6 kts 245°
2026-04-30 19:51 41.79867 12.59333 403 ft 8 kts 320°
2026-04-30 19:51 41.79917 12.59295 403 ft 9 kts 332°
2026-04-30 19:52 41.79969 12.59260 403 ft 8 kts 333°
2026-04-30 19:52 41.80022 12.59222 403 ft 9 kts 333°
2026-04-30 19:52 41.80077 12.59184 403 ft 9 kts 333°
2026-04-30 19:52 41.80132 12.59146 403 ft 9 kts 332°
2026-04-30 19:53 41.80189 12.59107 403 ft 9 kts 332°
2026-04-30 19:53 41.80243 12.59062 403 ft 9 kts 321°
2026-04-30 19:53 41.80273 12.58993 403 ft 7 kts 282°
2026-04-30 19:53 41.80256 12.58948 402 ft 6 kts 233°
2026-04-30 19:54 41.80226 12.58900 402 ft 7 kts 229°
2026-04-30 19:54 41.80192 12.58846 402 ft 8 kts 229°
2026-04-30 19:54 41.80164 12.58836 402 ft 4 kts 160°
2026-04-30 19:54 41.80124 12.58859 402 ft 7 kts 176°
2026-04-30 19:55 41.80088 12.58845 402 ft 2 kts 207°
2026-04-30 19:55 41.80067 12.58826 402 ft 5 kts 214°
2026-04-30 19:55 41.80033 12.58807 402 ft 6 kts 187°
2026-04-30 19:55 41.79995 12.58825 402 ft 6 kts 148°
2026-04-30 19:56 41.79994 12.58825 402 ft 0 kts 148°